This demonstration page uses our WeatherBlox Daily Observations layout. Learn more.

Left ArrowRight Arrow

Hourly Observations for April 30, 2017

Temp ( °F °C ) Dew Point ( °F °C ) Humidity (%) Winds ( mph kmh ) Pressure ( in mb ) Visibility ( mi km ) Precip ( " mm )
12:53 am 00:53 Clear 54 12.2 48 8.9 80 80 Calm 30.07 1018 10 16 0.00 0.00
1:53 am 01:53 Clear 53 11.7 47 8.3 80 80 Calm 30.08 1019 10 16 0.00 0.00
2:53 am 02:53 Clear 52 11.1 47 8.3 83 83 Calm 30.09 1019 10 16 0.00 0.00
3:53 am 03:53 Clear 50 10 46 7.8 86 86 ENE 3 6 30.10 1019 10 16 0.00 0.00
4:53 am 04:53 Clear 50 10 46 7.8 86 86 Calm 30.11 1020 10 16 0.00 0.00
5:53 am 05:53 Clear 48 8.9 45 7.2 89 89 Calm 30.12 1020 10 16 0.00 0.00
6:53 am 06:53 Sunny 49 9.4 46 7.8 90 90 NNE 5 7 30.13 1020 10 16 0.00 0.00
7:53 am 07:53 Sunny 56 13.3 48 8.9 75 75 Calm 30.14 1021 10 16 0.00 0.00
8:53 am 08:53 Sunny 67 19.4 49 9.4 53 53 N 6 9 30.13 1020 10 16 0.00 0.00
9:53 am 09:53 Sunny 72 22.2 46 7.8 40 40 N 5 7 30.13 1020 10 16 0.00 0.00
10:53 am 10:53 Sunny 76 24.4 45 7.2 33 33 N 8 13 30.13 1020 10 16 0.00 0.00
11:53 am 11:53 Sunny 78 25.6 45 7.2 31 31 VRB 5 7 30.12 1020 10 16 0.00 0.00
12:53 pm 12:53 Sunny 79 26.1 46 7.8 31 31 W 5 7 30.10 1019 10 16 0.00 0.00
1:53 pm 13:53 Sunny 82 27.8 44 6.7 26 26 Calm 30.07 1018 10 16 0.00 0.00
2:53 pm 14:53 Sunny 82 27.8 45 7.2 27 27 VRB 6 9 30.05 1018 10 16 0.00 0.00
3:53 pm 15:53 Sunny 83 28.3 42 5.6 24 24 S 7 11 30.03 1017 10 16 0.00 0.00
4:53 pm 16:53 Sunny 84 28.9 41 5 22 22 SW 6 9 30.01 1016 10 16 0.00 0.00
5:53 pm 17:53 Sunny 86 30 34 1.1 15 15 NNE 7 11 30.01 1016 10 16 0.00 0.00
6:53 pm 18:53 Sunny 83 28.3 32 0 16 16 NE 5 7 30.01 1016 10 16 0.00 0.00
7:53 pm 19:53 Sunny 76 24.4 39 3.9 26 26 Calm 30.02 1017 10 16 0.00 0.00
8:53 pm 20:53 Clear 72 22.2 41 5 33 33 N 5 7 30.04 1017 10 16 0.00 0.00
9:53 pm 21:53 Clear 72 22.2 38 3.3 29 29 NNW 6 9 30.07 1018 10 16 0.00 0.00
10:53 pm 22:53 Clear 66 18.9 43 6.1 43 43 NE 8 13 30.09 1019 10 16 0.00 0.00
11:53 pm 23:53 Clear 66 18.9 40 4.4 39 39 N 12 19 30.08 1019 10 16 0.00 0.00

Powered by AerisWeather